Tracking 19145 objects as of 25-Apr-2018
HD Live streaming from Space Station
objects crossing your sky now

CZ-4 DEB

Track CZ-4 DEB now!
10-day predictions


NORAD ID: 26259
Int'l Code: 1999-057EV
Perigee: 667.3 km
Apogee: 796.2 km
Inclination: 98.6 °
Period: 99.3 minutes
Semi major axis: 7102 km
RCS: 0.031 m2 (small)
Launch date: October 14, 1999
Source: People's Republic of China (PRC)
Launch site: Taiyaun Space Center, China (TSC)

Note: This is SATELLITE DEBRIS
aabbcc
Your satellite tracking list
Your tracking list is empty




NASA's NSSDC Master Catalog

Two Line Element Set (TLE):
1 26259U 99057EV  18114.97288522 +.00000589 +00000-0 +15574-3 0  9999
2 26259 098.5881 108.2080 0090738 164.5069 253.7948 14.50319997951069
Source of the keplerian elements: AFSPC